Skip Page Navigation
NASA JPL Caltech
NASA Logo - Jet Propulsion Laboratory + View the NASA Portal
+ Center for Near-Earth Object Studies
JPL Home Earth Solar System Stars & Galaxies Technology
JPL Solar System Dynamics
BODIES ORBITS EPHEMERIDES TOOLS PHYSICAL DATA DISCOVERY FAQ SITE MAP
JPL Small-Body Database Browser
Search: [ help ]  
469203 (2016 GF193)
Classification: Main-belt Asteroid          SPK-ID: 2469203
Ephemeris | Orbit Diagram | Orbital Elements | Mission Design | Physical Parameters | Discovery Circumstances ]

[ show orbit diagram ]
Orbital Elements at Epoch 2459000.5 (2020-May-31.0) TDB
Reference: JPL 11 (heliocentric ecliptic J2000)
 Element Value Uncertainty (1-sigma)   Units 
e .08346626125584473 6.1133e-08  
a 2.64430098926354 3.3729e-08 au
q 2.423591072054581 1.7121e-07 au
i 14.16902268428813 1.0006e-05 deg
node 182.8444824204874 2.5226e-05 deg
peri 84.43238590383898 6.4709e-05 deg
M 313.8971604432471 5.7436e-05 deg
tp 2459201.636057179600
(2020-Dec-18.13605718)
0.00025107 TDB
period 1570.59698016041
4.30
3.005e-05
8.227e-08
d
yr
n .2292122069171635 4.3855e-09 deg/d
Q 2.865010906472499 3.6544e-08 au
  Orbit Determination Parameters
   # obs. used (total)      120  
   data-arc span      5702 days (15.61 yr)  
   first obs. used      2004-09-16  
   last obs. used      2020-04-27  
   planetary ephem.      DE431  
   SB-pert. ephem.      SB431-N16  
   condition code      0  
   norm. resid. RMS      .58212  
   source      ORB  
   producer      Otto Matic  
   solution date      2020-May-22 04:46:37  

Additional Information
 Earth MOID = 1.4592 au 
 Jupiter MOID = 2.23879 au 
 T_jup = 3.345 
[ show covariance matrix ]

Ephemeris | Orbit Diagram | Orbital Elements | Mission Design | Physical Parameters | Discovery Circumstances ]

Physical Parameter Table
Parameter Symbol Value Units Sigma Reference Notes
absolute magnitude H 16.9   n/a MPO380663  

469203 (2016 GF193)          Discovered 2007-Mar-26 by Spacewatch at Kitt Peak
Reference: Last Updated: 2016-06-21

Alternate Designations
 2016 GF193 = 2008 QM4 
Ephemeris | Orbit Diagram | Orbital Elements | Mission Design | Physical Parameters | Discovery Circumstances ]
ABOUT SSD CREDITS/AWARDS PRIVACY/COPYRIGHT GLOSSARY LINKS
FirstGov 2020-Jul-10 23:38 UT
(server date/time)  
NASA Home Page
Site Manager:   Ryan S. Park
Webmaster  Alan B. Chamberlin